Location: ??
(34.9170°N, 135.5016°E)
Time: 11:57:19
(UTC+00:00)

Cosmos 1190 Rocket - Pass Details

Date: 29 October 2020
Orbit: 757 x 779 km, 74.1° (Epoch: 26 November)

Event Time Altitude Azimuth Distance (km) Brightness Sun altitude
Rises 20:26:39 0° 204° (SSW) 3,227 7.1 -10.9°
Reaches altitude 10° 20:29:02 10° 207° (SSW) 2,300 6.3 -10.4°
Maximum altitude 20:34:13 64° 288° (WNW) 846 4.0 -9.4°
Drops below altitude 10° 20:39:24 10° 11° (N) 2,300 6.5 -8.3°
Sets 20:41:47 0° 14° (NNE) 3,227 7.3 -7.8°
